Overview Statistics Trail Chart Weather Telemetry Raw packets
 

This is the latest recevied weather packets stored in our database for station/object SQ6ILB-11. If no packets are shown the sender has not sent any weather packets the latest 10 day(s).

<< 30 31 32 33 34 35 36 >>
Time Temp. Humidity Pressure Rain* Wind** Luminosity Snow
1787892083 16.67° C 62% 985.3 hPa - - - -
1787891183 16.67° C 62% 985.5 hPa - - - -
1787890283 17.22° C 62% 985.6 hPa - - - -
1787889383 17.22° C 62% 985.8 hPa - - - -
1787888482 17.22° C 61% 985.9 hPa - - - -
1787887582 17.22° C 61% 986 hPa - - - -
1787886682 17.78° C 61% 986 hPa - - - -
1787885782 17.78° C 60% 986 hPa - - - -
1787884882 17.78° C 60% 986.1 hPa - - - -
1787883982 17.78° C 59% 986.4 hPa - - - -
1787883081 18.33° C 59% 986.4 hPa - - - -
1787882181 18.33° C 59% 986.4 hPa - - - -
1787881281 18.33° C 57% 986.5 hPa - - - -
1787880381 18.33° C 58% 986.6 hPa - - - -
1787879481 18.33° C 58% 986.7 hPa - - - -
1787878581 18.33° C 58% 986.8 hPa - - - -
1787877681 18.33° C 56% 986.9 hPa - - - -
1787876780 18.33° C 58% 987 hPa - - - -
1787875880 18.33° C 55% 987.3 hPa - - - -
1787874980 18.89° C 57% 987.4 hPa - - - -
1787874080 18.89° C 56% 987.6 hPa - - - -
1787873180 18.89° C 56% 987.9 hPa - - - -
1787872280 18.89° C 57% 988 hPa - - - -
1787871380 18.89° C 57% 988.2 hPa - - - -
1787870479 19.44° C 56% 988.2 hPa - - - -

* Rain since midnight (hover to see other rain measurements)
** Current wind speed in m/s (hover to see current wind gust speed)